FENGYUN 1C DEB

Satellite information

Favourite Embed

Satellite Type and Status

DEBRISIN ORBIT

Key statistics

Satellite FENGYUN 1C DEB at a glance.

Uptime

9495

Days in orbit

Revolutions

≈ 14.0

Per day

Orbit

SSO

Sun Synchronous Orbit

Inclination

98.6

Latest

Satellite identification and parameters

Extended collection of information and parameters for FENGYUN 1C DEB.

Object identification

Identified? True

Debris? True

Object name: FENGYUN 1C DEB

International designator: 1999-025AQB

Object number (NORAD): 30669

Object ID (CCSDS): 30669

Country: PEOPLES REPUBLIC OF CHINA (PRC)

Current information (Y/N): Y

RCS size: SMALL

Orbital parameters

Period: 102.75 minutes

Inclination: 98.6235 deg

SMA: 7266.899 km

Apoapsis: 979.194 km

Periapsis: 798.335 km

RAAN: 76.1522 deg

Eccentricy: 0.012444

Argument of periapsis: 70.5375 deg

Mean anomaly: 345.365 deg

Mean motion: 14.01454608 rev/day

Mean motion (dot): 0.00002781 rev/day2

B* drag term: 0.001746 1/REarth

Two-line elements (TLE)

Creation date: May 8, 2025, 3:01 a.m.

Reference frame: TEME

Reference center: EARTH

Epoch: May 7, 2025, 8:04 p.m. UTC

TLE line 0: 0 FENGYUN 1C DEB

TLE line 1: 1 30669U 99025AQB 25127.83626045 .00002781 00000-0 17460-2 0 9998

TLE line 2: 2 30669 98.6235 76.1522 0124440 70.5375 345.3650 14.01454608923861

Live tracking on map

Real-time ground track for satellite FENGYUN 1C DEB.

In-orbit conjunctions

A list of the most updated potential collisions computed for object FENGYUN 1C DEB.

Target Orbit TCA Probability of collision Miss distance Type
SL-8 R/B LEO 2025-04-27 22:56:47 0.0001123778 241.0 (m) ROCKET BODY
CZ-6A DEB LEO 2025-02-25 00:55:08 0.000417891 136.0 (m) DEBRIS
FENGYUN 1C DEB SSO 2025-01-31 11:28:20 0.0001011194 19.0 (m) DEBRIS
COSMOS 2026 LEO 2024-08-28 00:55:52 0.0002890089 647.0 (m) PAYLOAD
SL-8 R/B LEO 2024-06-13 10:02:48 0.0001481589 179.0 (m) ROCKET BODY

Associated space launch

Chinese polar orbiting meteorological satellite

FENGYUN 1C DEB was lifted into orbit during the mission ‘Long March 4B | Feng Yun 1C’, on board a Long March 4B space rocket.

The launch took place on May 10, 1999, 1:33 a.m. from Launch Complex 7.

For more information about the launch, click the button.

Launch to space Long March 4B | Feng Yun 1C
Long March 4B | Feng Yun 1C

Agency: N/A

Status: Launch Successful

Launch date: May 10, 1999, 1:33 a.m. UTC

Rocket: Long March 4B

Launch pad: Launch Complex 7

Location: Taiyuan Satellite Launch Center, People's Republic of China

...

Latest news about this satellite

There are no fresh news available about this satellite. Check back as we update our databases every day.


Newsletter sign-up

Weekly statistics, charts and insights to help you stay on top of the space industry.